TimeAKDT,TemperatureF,Dew PointF,Humidity,Sea Level PressureIn,VisibilityMPH,Wind Direction,Wind SpeedMPH,Gust SpeedMPH,PrecipitationIn,Events,Conditions,WindDirDegrees,DateUTC
12:53 AM,42.1,30.9,65,29.80,10.0,WNW,16.1,-,N/A,,Overcast,290,2013-08-29 08:53:00
1:41 AM,42.8,33.8,70,29.81,10.0,WNW,18.4,-,N/A,,Overcast,290,2013-08-29 09:41:00
1:53 AM,42.1,33.1,70,29.81,10.0,WNW,17.3,24.2,N/A,,Mostly Cloudy,290,2013-08-29 09:53:00
2:04 AM,41.0,30.2,65,29.81,10.0,West,18.4,-,N/A,,Mostly Cloudy,280,2013-08-29 10:04:00
2:53 AM,41.0,30.9,67,29.82,10.0,West,16.1,-,0.00,,Mostly Cloudy,280,2013-08-29 10:53:00
3:53 AM,41.0,30.0,65,29.84,10.0,WNW,16.1,-,N/A,,Mostly Cloudy,290,2013-08-29 11:53:00
4:53 AM,39.9,30.9,70,29.85,10.0,WNW,15.0,-,N/A,,Overcast,300,2013-08-29 12:53:00
5:45 AM,39.2,33.8,81,29.86,7.0,WNW,11.5,20.7,0.00,Rain,Light Rain,290,2013-08-29 13:45:00
5:53 AM,39.0,33.1,79,29.86,10.0,West,9.2,-,0.00,,Overcast,280,2013-08-29 13:53:00
7:28 AM,37.4,33.8,87,29.87,10.0,West,6.9,-,0.00,,Overcast,260,2013-08-29 15:28:00
7:51 AM,37.4,33.8,87,29.88,6.0,WSW,8.1,-,0.00,Rain,Light Rain,250,2013-08-29 15:51:00
7:53 AM,37.0,34.0,89,29.88,5.0,Variable,4.6,-,0.00,Rain,Light Rain,0,2013-08-29 15:53:00
8:27 AM,37.4,33.8,87,29.88,10.0,WSW,11.5,-,0.00,,Overcast,240,2013-08-29 16:27:00
8:48 AM,37.4,33.8,87,29.88,10.0,WSW,12.7,-,0.00,,Overcast,240,2013-08-29 16:48:00
8:53 AM,37.9,34.0,86,29.88,8.0,WSW,12.7,-,0.00,Rain,Light Rain,240,2013-08-29 16:53:00
9:19 AM,37.4,33.8,87,29.88,10.0,WSW,9.2,-,0.00,,Mostly Cloudy,240,2013-08-29 17:19:00
9:51 AM,37.4,33.8,87,29.89,10.0,WSW,11.5,19.6,0.00,Rain,Light Rain,240,2013-08-29 17:51:00
9:53 AM,37.9,34.0,86,29.89,10.0,WSW,10.4,19.6,0.00,Rain,Light Rain,240,2013-08-29 17:53:00
10:09 AM,39.2,35.6,87,29.89,10.0,SW,11.5,-,0.00,,Overcast,220,2013-08-29 18:09:00
10:41 AM,37.4,33.8,87,29.90,10.0,West,15.0,19.6,0.00,Rain,Light Rain,260,2013-08-29 18:41:00
10:53 AM,37.9,34.0,86,29.91,10.0,SSW,8.1,-,0.00,Rain,Light Rain,210,2013-08-29 18:53:00
11:08 AM,41.0,35.6,81,29.91,10.0,SW,10.4,-,0.00,,Overcast,230,2013-08-29 19:08:00
11:53 AM,39.0,34.0,82,29.93,7.0,NW,12.7,25.3,0.00,Rain,Light Rain,310,2013-08-29 19:53:00
12:09 PM,39.2,33.8,81,29.92,8.0,West,9.2,-,0.00,Rain,Light Rain,280,2013-08-29 20:09:00
12:37 PM,42.8,33.8,70,29.92,10.0,West,11.5,-,0.00,,Overcast,270,2013-08-29 20:37:00
12:51 PM,42.8,33.8,70,29.92,10.0,WNW,9.2,-,0.00,,Overcast,300,2013-08-29 20:51:00
12:53 PM,42.1,32.0,67,29.92,10.0,West,9.2,-,0.00,,Overcast,280,2013-08-29 20:53:00
1:53 PM,43.0,30.0,60,29.93,10.0,West,11.5,-,N/A,,Overcast,270,2013-08-29 21:53:00
2:53 PM,44.1,28.9,55,29.93,10.0,West,12.7,-,N/A,,Overcast,280,2013-08-29 22:53:00
3:53 PM,44.1,26.1,49,29.94,10.0,WNW,10.4,-,N/A,,Mostly Cloudy,290,2013-08-29 23:53:00
4:53 PM,44.1,28.0,53,29.94,10.0,West,8.1,-,N/A,,Overcast,280,2013-08-30 00:53:00
5:53 PM,46.0,26.1,46,29.94,10.0,Variable,6.9,-,N/A,,Mostly Cloudy,0,2013-08-30 01:53:00
6:53 PM,45.0,27.0,49,29.93,10.0,WNW,3.5,-,N/A,,Mostly Cloudy,290,2013-08-30 02:53:00
7:53 PM,45.0,27.0,49,29.93,10.0,Calm,Calm,-,N/A,,Mostly Cloudy,0,2013-08-30 03:53:00
8:53 PM,44.1,28.0,53,29.92,10.0,East,5.8,-,N/A,,Overcast,100,2013-08-30 04:53:00
9:53 PM,37.9,30.0,73,29.92,10.0,SE,5.8,-,N/A,,Clear,140,2013-08-30 05:53:00
10:53 PM,37.9,30.0,73,29.91,10.0,SSW,8.1,-,N/A,,Overcast,210,2013-08-30 06:53:00
11:53 PM,39.0,32.0,76,29.92,10.0,SW,9.2,-,N/A,,Overcast,220,2013-08-30 07:53:00